DW9177 Weather Reports


Display with metric or nautical units.
time (UTC)temp
F
wind
direction
speed
MPH
gust
MPH
rain 1hr
in
rain 24hr
in
rain mn
in
humidity
%
barometer
mb
20260904053050 80 133 0.0 2.0 0.00 0.00 0.00 65 1007.9
20260904051552 79 176 0.0 0.0 0.00 0.00 0.00 65 1007.9
20260904050049 80 174 0.0 0.0 0.00 0.00 0.00 64 1008.2
20260904044549 80 174 0.0 0.0 0.00 0.00 0.00 65 1008.3
20260904043058 80 178 0.0 3.0 0.00 0.00 0.00 64 1008.2
20260904041547 80 179 0.0 4.0 0.00 0.00 0.00 63 1008.4
20260904040047 81 176 2.0 7.0 0.00 0.00 0.00 63 1008.1
20260904034551 81 179 3.0 7.0 0.00 0.00 0.00 62 1008.1
20260904033046 82 179 3.0 7.0 0.00 0.00 0.00 62 1008.0
20260904031545 82 90 1.0 3.0 0.00 0.00 0.00 59 1007.7
20260904030045 82 175 0.0 2.0 0.00 0.00 0.00 59 1007.5
20260904024546 82 161 0.0 7.0 0.00 0.00 0.00 59 1007.1
20260904023042 83 108 1.0 10.0 0.00 0.00 0.00 58 1006.8
20260904021547 83 119 1.0 8.0 0.00 0.00 0.00 58 1006.7
20260904020041 83 105 2.0 10.0 0.00 0.00 0.00 58 1006.5
20260904014557 83 118 3.0 11.0 0.00 0.00 0.00 58 1006.2
20260904013040 84 107 2.0 10.0 0.00 0.00 0.00 56 1006.1
20260904011538 86 105 2.0 14.0 0.00 0.00 0.00 56 1005.9
20260904010041 87 115 4.0 14.0 0.00 0.00 0.00 54 1005.9
20260904004537 88 113 3.0 12.0 0.00 0.00 0.00 52 1005.9
20260904003036 89 122 4.0 9.0 0.00 0.00 0.00 50 1005.8
20260904001538 90 131 3.0 8.0 0.00 0.00 0.00 47 1005.6
20260904000113 89 131 2.0 11.0 0.00 0.00 0.00 51 1005.9
20260903234534 88 131 4.0 11.0 0.00 0.00 0.00 52 1005.9
20260903233034 90 127 5.0 13.0 0.00 0.00 0.00 47 1005.8
20260903231532 91 123 2.0 7.0 0.00 0.00 0.00 45 1005.8
20260903230035 91 129 0.0 4.0 0.00 0.00 0.00 45 1005.8
20260903224543 91 140 3.0 8.0 0.00 0.00 0.00 44 1005.8
20260903223034 93 131 1.0 8.0 0.00 0.00 0.00 42 1005.7
20260903221530 92 135 2.0 6.0 0.00 0.00 0.00 43 1005.8
20260903220027 93 124 1.0 7.0 0.00 0.00 0.00 43 1005.9
20260903214534 95 147 1.0 6.0 0.00 0.00 0.00 41 1006.2
20260903213034 95 105 1.0 6.0 0.00 0.00 0.00 40 1006.3
20260903211521 95 105 1.0 4.0 0.00 0.00 0.00 40 1006.5
20260903210020 94 117 1.0 7.0 0.00 0.00 0.00 41 1006.7
20260903204518 94 134 3.0 7.0 0.00 0.00 0.00 42 1006.9
20260903203015 93 153 0.0 5.0 0.00 0.00 0.00 43 1007.1
20260903201512 91 134 2.0 6.0 0.00 0.00 0.00 45 1007.5
20260903200010 91 134 2.0 6.0 0.00 0.00 0.00 45 1007.7
20260903194510 92 122 1.0 6.0 0.00 0.00 0.00 45 1007.9
20260903193004 91 131 0.0 4.0 0.00 0.00 0.00 46 1008.2
20260903191601 90 126 0.0 7.0 0.00 0.00 0.00 47 1008.4
20260903184556 89 131 1.0 7.0 0.00 0.00 0.00 49 1009.0
20260903183057 88 131 1.0 8.0 0.00 0.00 0.00 50 1009.2
20260903181555 88 139 1.0 4.0 0.00 0.00 0.00 50 1009.3
20260903180055 88 127 0.0 7.0 0.00 0.00 0.00 52 1009.6
20260903174549 87 129 2.0 5.0 0.00 0.00 0.00 52 1009.7
20260903173051 86 105 1.0 7.0 0.00 0.00 0.00 53 1009.9
20260903171545 86 105 1.0 6.0 0.00 0.00 0.00 54 1009.8
20260903170054 85 103 0.0 5.0 0.00 0.00 0.00 56 1009.8
20260903164541 84 100 0.0 6.0 0.00 0.00 0.00 59 1009.8
20260903163058 83 95 0.0 5.0 0.00 0.00 0.00 59 1009.9
20260903161541 83 108 2.0 5.0 0.00 0.00 0.00 60 1009.9
20260903160039 83 131 0.0 5.0 0.00 0.00 0.00 61 1010.0
20260903154537 83 105 0.0 2.0 0.00 0.00 0.00 61 1010.0
20260903153034 81 120 0.0 3.0 0.00 0.00 0.00 63 1009.9
20260903151532 81 104 0.0 4.0 0.00 0.00 0.00 63 1010.0
20260903150046 80 112 0.0 4.0 0.00 0.00 0.00 65 1009.9
20260903144531 80 108 0.0 0.0 0.00 0.00 0.00 65 1010.0
20260903143036 79 105 0.0 0.0 0.00 0.00 0.00 68 1009.8
20260903141531 78 114 0.0 3.0 0.00 0.00 0.00 70 1010.0
20260903140027 78 105 0.0 0.0 0.00 0.00 0.00 70 1009.9
20260903134527 78 105 0.0 0.0 0.00 0.00 0.00 70 1009.7
20260903133027 78 126 0.0 0.0 0.00 0.00 0.00 70 1009.6
20260903131524 78 108 0.0 5.0 0.00 0.00 0.00 69 1009.5
20260903130021 78 108 0.0 5.0 0.00 0.00 0.00 68 1009.2
20260903124523 78 121 4.0 8.0 0.00 0.00 0.00 67 1009.1
20260903123027 78 106 2.0 4.0 0.00 0.00 0.00 67 1008.9
20260903121518 78 105 0.0 3.0 0.00 0.00 0.00 68 1008.8
20260903120018 79 112 0.0 0.0 0.00 0.00 0.00 66 1008.7
20260903114520 78 103 1.0 4.0 0.00 0.00 0.00 66 1008.6
20260903113017 79 105 0.0 5.0 0.00 0.00 0.00 65 1008.6
20260903111516 78 109 0.0 3.0 0.00 0.00 0.00 67 1008.6
20260903110015 78 105 0.0 0.0 0.00 0.00 0.00 67 1008.5
20260903104514 78 102 1.0 6.0 0.00 0.00 0.00 67 1008.6
20260903103014 78 103 4.0 7.0 0.00 0.00 0.00 68 1008.8
20260903101511 78 104 2.0 7.0 0.00 0.00 0.00 68 1008.7
20260903100021 78 102 3.0 7.0 0.00 0.00 0.00 68 1008.8
20260903094510 78 105 2.0 8.0 0.00 0.00 0.00 68 1008.8
20260903093007 79 104 4.0 8.0 0.00 0.00 0.00 68 1008.8
20260903091507 79 105 2.0 8.0 0.00 0.00 0.00 68 1008.8
20260903090009 79 99 3.0 6.0 0.00 0.00 0.00 68 1008.8
20260903084505 79 105 1.0 5.0 0.00 0.00 0.00 67 1008.9
20260903083004 79 108 1.0 6.0 0.00 0.00 0.00 67 1008.8
20260903081504 79 117 2.0 7.0 0.00 0.00 0.00 66 1008.9
20260903080002 80 102 2.0 6.0 0.00 0.00 0.00 65 1008.8
20260903074559 80 108 3.0 8.0 0.00 0.00 0.00 65 1008.9
20260903073056 80 102 4.0 9.0 0.00 0.00 0.00 64 1008.9
20260903071624 81 120 3.0 7.0 0.00 0.00 0.00 64 1009.0
20260903064556 81 103 3.0 6.0 0.00 0.00 0.00 64 1008.7
20260903063102 81 98 0.0 2.0 0.00 0.00 0.00 64 1008.8
20260903061552 81 120 0.0 3.0 0.00 0.00 0.00 63 1008.8
20260903060051 81 104 0.0 4.0 0.00 0.00 0.00 62 1008.7
20260903054551 82 103 0.0 7.0 0.00 0.00 0.00 61 1008.9